Tullahoma, TN

9:53 AM CST on December 08, 2019 (GMT -0600)
Tullahoma Regional-Northern

Weather History for KTHA - November, 2019

Change the Weather History Date:

Wednesday, November 20, 2019

  Actual Average Record
Temperature  
Mean Temperature 44 °F -  
Max Temperature 60 °F 60 °F 60 °F (2019)
Min Temperature 28 °F 39 °F 21 °F (2016)
Degree Days  
Heating Degree Days 21    
Moisture  
Dew Point 34 °F    
Average Humidity 73    
Maximum Humidity 100    
Minimum Humidity 39    
Precipitation  
Precipitation 0.00 in - - ()
Sea Level Pressure  
Sea Level Pressure 30.17 in    
Wind  
Wind Speed 1 mph (North)    
Max Wind Speed 9 mph    
Max Gust Speed 15 mph    
Visibility 10 miles    
Events      
Averages and records for this station are not official NWS values.
T = Trace of Precipitation, MM = Missing Value Source: NWS Daily Summary

Daily Weather History Graph

Daily Weather History Graph

Search for Another Location

Airport or City:

Astronomy

Nov. 20, 2019 Rise Set
Actual Time 6:24 AM CST 4:35 PM CST
Civil Twilight 5:57 AM CST 5:03 PM CST
Nautical Twilight 5:26 AM CST 5:34 PM CST
Astronomical Twilight 4:56 AM CST 6:04 PM CST
Moon No Moon Rise 1:14 PM CST (11/20)
Length of Visible Light 11h 05m
Length of Day
10h 11m
Last Quarter, 40% of the Moon is Illuminated
Nov 20
Last Quarter
Nov 26
New
Dec 4
First Quarter
Dec 11
Full
Dec 18
Last Quarter

Hourly Weather History & Observations

Time (CST) Temp. Dew Point Humidity Pressure Visibility Wind Dir Wind Speed Gust Speed Precip Events Conditions
12:15 AM 33.8 °F 32.0 °F 93% 30.03 in 10.0 mi Calm Calm - N/A   Clear
12:35 AM 32.0 °F 30.2 °F 93% 30.04 in 10.0 mi Calm Calm - N/A   Clear
12:55 AM 30.2 °F 28.4 °F 93% 30.05 in 10.0 mi Calm Calm - N/A   Clear
1:15 AM 32.0 °F 30.2 °F 93% 30.05 in 10.0 mi Calm Calm - N/A   Clear
1:35 AM 32.0 °F 32.0 °F 100% 30.06 in 10.0 mi Calm Calm - N/A   Clear
1:55 AM 32.0 °F 28.4 °F 87% 30.07 in 10.0 mi Calm Calm - N/A   Clear
2:15 AM 30.2 °F 28.4 °F 93% 30.08 in 9.0 mi Calm Calm - N/A   Clear
2:35 AM 32.0 °F 30.2 °F 93% 30.09 in 10.0 mi Calm Calm - N/A   Clear
2:55 AM 30.2 °F 30.2 °F 100% 30.10 in 10.0 mi Calm Calm - N/A   Clear
3:15 AM 28.4 °F 26.6 °F 93% 30.11 in 8.0 mi Calm Calm - N/A   Clear
3:35 AM 30.2 °F 28.4 °F 93% 30.11 in 10.0 mi Calm Calm - N/A   Clear
3:55 AM 30.2 °F 28.4 °F 93% 30.12 in 5.0 mi Calm Calm - N/A   Clear
4:15 AM 30.2 °F 28.4 °F 93% 30.12 in 10.0 mi Calm Calm - N/A   Clear
4:35 AM 30.2 °F 28.4 °F 93% 30.13 in 6.0 mi Calm Calm - N/A   Clear
4:55 AM 28.4 °F 28.4 °F 100% 30.13 in 10.0 mi Calm Calm - N/A   Clear
5:15 AM 28.4 °F 26.6 °F 93% 30.14 in 8.0 mi Calm Calm - N/A   Clear
5:35 AM 28.4 °F 28.4 °F 100% 30.15 in 10.0 mi Calm Calm - N/A   Clear
5:55 AM 28.4 °F 26.6 °F 93% 30.17 in 10.0 mi Calm Calm - N/A   Clear
6:15 AM 30.2 °F 28.4 °F 93% 30.18 in 10.0 mi Calm Calm - N/A   Clear
6:35 AM 28.4 °F 26.6 °F 93% 30.18 in 10.0 mi Calm Calm - N/A   Clear
6:55 AM 30.2 °F 28.4 °F 93% 30.18 in 10.0 mi Calm Calm - N/A   Clear
7:15 AM 32.0 °F 28.4 °F 87% 30.20 in 10.0 mi Calm Calm - N/A   Clear
8:15 AM 41.0 °F 37.4 °F 87% 30.23 in 9.0 mi Calm Calm - N/A   Clear
8:35 AM 44.6 °F 39.2 °F 81% 30.23 in 10.0 mi Calm Calm - N/A   Clear
8:55 AM 46.4 °F 37.4 °F 71% 30.23 in 10.0 mi Calm Calm - N/A   Clear
9:15 AM 48.2 °F 37.4 °F 66% 30.23 in 10.0 mi Calm Calm - N/A   Clear
9:35 AM 50.0 °F 37.4 °F 62% 30.23 in 10.0 mi Calm Calm - N/A   Clear
9:55 AM 50.0 °F 37.4 °F 62% 30.23 in 10.0 mi Variable 4.6 mph - N/A   Clear
10:15 AM 51.8 °F 37.4 °F 58% 30.23 in 10.0 mi Variable 6.9 mph - N/A   Clear
10:35 AM 53.6 °F 37.4 °F 54% 30.23 in 10.0 mi NNE 6.9 mph - N/A   Clear
10:55 AM 53.6 °F 37.4 °F 54% 30.22 in 10.0 mi North 6.9 mph - N/A   Clear
11:35 AM 55.4 °F 37.4 °F 51% 30.21 in 10.0 mi NNE 4.6 mph - N/A   Clear
11:55 AM 57.2 °F 37.4 °F 48% 30.20 in 10.0 mi North 6.9 mph - N/A   Clear
12:15 PM 59.0 °F 37.4 °F 45% 30.20 in 10.0 mi NNW 9.2 mph 15.0 mph N/A   Clear
12:35 PM 57.2 °F 35.6 °F 44% 30.19 in 10.0 mi Calm Calm - N/A   Clear
12:55 PM 59.0 °F 37.4 °F 45% 30.19 in 10.0 mi Variable 5.8 mph 12.7 mph N/A   Clear
1:15 PM 59.0 °F 35.6 °F 42% 30.19 in 10.0 mi NNE 4.6 mph - N/A   Clear
1:35 PM 59.0 °F 35.6 °F 42% 30.18 in 10.0 mi North 8.1 mph - N/A   Clear
2:15 PM 60.8 °F 35.6 °F 39% 30.18 in 10.0 mi North 5.8 mph - N/A   Clear
2:35 PM 60.8 °F 35.6 °F 39% 30.18 in 10.0 mi Calm Calm - N/A   Clear
2:55 PM 59.0 °F 35.6 °F 42% 30.18 in 10.0 mi Calm Calm - N/A   Clear
3:15 PM 59.0 °F 35.6 °F 42% 30.18 in 10.0 mi Calm Calm - N/A   Clear
3:35 PM 59.0 °F 33.8 °F 39% 30.18 in 10.0 mi Calm Calm - N/A   Clear
3:55 PM 59.0 °F 33.8 °F 39% 30.18 in 10.0 mi ENE 4.6 mph - N/A   Clear
4:15 PM 57.2 °F 35.6 °F 44% 30.19 in 10.0 mi Calm Calm - N/A   Clear
4:35 PM 57.2 °F 35.6 °F 44% 30.19 in 10.0 mi Calm Calm - N/A   Clear
4:55 PM 48.2 °F 33.8 °F 58% 30.19 in 10.0 mi West 4.6 mph - N/A   Clear
5:15 PM 50.0 °F 35.6 °F 58% 30.19 in 10.0 mi Calm Calm - N/A   Clear
5:35 PM 46.4 °F 33.8 °F 62% 30.20 in 10.0 mi Calm Calm - N/A   Clear
6:15 PM 44.6 °F 35.6 °F 71% 30.21 in 10.0 mi Calm Calm - N/A   Clear
6:35 PM 44.6 °F 35.6 °F 71% 30.20 in 10.0 mi Calm Calm - N/A   Clear
6:55 PM 44.6 °F 35.6 °F 71% 30.20 in 10.0 mi Calm Calm - N/A   Clear
7:15 PM 44.6 °F 37.4 °F 76% 30.21 in 10.0 mi Calm Calm - N/A   Clear
7:35 PM 42.8 °F 37.4 °F 81% 30.21 in 10.0 mi Calm Calm - N/A   Clear
7:55 PM 44.6 °F 37.4 °F 76% 30.22 in 10.0 mi Calm Calm - N/A   Clear
8:15 PM 44.6 °F 37.4 °F 76% 30.22 in 10.0 mi Calm Calm - N/A   Clear
8:35 PM 44.6 °F 37.4 °F 76% 30.21 in 10.0 mi Calm Calm - N/A   Clear
8:55 PM 44.6 °F 37.4 °F 76% 30.20 in 10.0 mi Calm Calm - N/A   Clear
9:15 PM 42.8 °F 37.4 °F 81% 30.20 in 10.0 mi Calm Calm - N/A   Clear
9:35 PM 42.8 °F 37.4 °F 81% 30.20 in 10.0 mi Calm Calm - N/A   Clear
9:55 PM 44.6 °F 37.4 °F 76% 30.19 in 10.0 mi Calm Calm - N/A   Clear
10:15 PM 41.0 °F 35.6 °F 81% 30.20 in 10.0 mi Calm Calm - N/A   Clear
10:35 PM 41.0 °F 37.4 °F 87% 30.20 in 10.0 mi Calm Calm - N/A   Clear
10:55 PM 41.0 °F 37.4 °F 87% 30.21 in 10.0 mi Calm Calm - N/A   Clear
11:15 PM 42.8 °F 37.4 °F 81% 30.20 in 10.0 mi Calm Calm - N/A   Clear
11:35 PM 44.6 °F 37.4 °F 76% 30.21 in 10.0 mi Calm Calm - N/A   Clear
11:55 PM 44.6 °F 37.4 °F 76% 30.20 in 10.0 mi Calm Calm - N/A   Clear